Location: Davidschlag
(48.4333°N, 14.2833°E)
Time: 06:17:12
(UTC+00:00)

STARLINK-1046 - Pass Details

Date: 27 February 2020
Orbit: 549 x 550 km, 53.0° (Epoch: 28 March)

Event Time Altitude Azimuth Distance (km) Brightness Sun altitude
Rises 18:21:08 0° 241° (WSW) 2,710 8.1 -17.1°
Reaches altitude 10° 18:23:21 10° 241° (WSW) 1,819 7.1 -17.4°
Maximum altitude 18:27:30 87° 156° (SSE) 556 3.5 -18.1°
Enters shadow 18:28:58 39° 66° (ENE) 830 4.1 -18.4°
